{"data":{"norad_id":53199,"intl_designator":"2022-084L","name":"STARLINK-4395","alt_names":[],"object_type":"PAYLOAD","status":"ACTIVE","operator":null,"country":"US","launch_date":"2022-07-22","launch_site_code":"AFWTR","launch_vehicle":null,"mission":null,"orbit_class":"UNKNOWN","rcs_meters":null,"size_class":null,"mass_kg":null,"dimensions":null,"purposes":["comms"],"wikipedia_slug":null,"has_3d_model":false,"image_url":null,"decayed_at":null,"tle_current":{"epoch":"2026-09-19T09:35:36.732480Z","epoch_age_seconds":167285,"freshness":"FRESH","line1":"1 53199U 22084L   26262.39973070 -.00000295  00000+0 -68062-5 0  9993","line2":"2 53199  97.2839 318.0500 0001871  88.5085 271.6372 15.33431340228574","mean_motion":15.3343134,"eccentricity":0.0001871,"inclination_deg":97.2839,"raan_deg":318.05,"arg_perigee_deg":88.5085,"mean_anomaly_deg":271.6372,"bstar":-6.8062e-6,"rev_number":22857,"period_min":93.907041185163,"perigee_km":464.30335716429,"apogee_km":466.86427749413,"semimajor_km":6843.7208173292,"source":"CELESTRAK","updated_at":"2026-09-20T09:00:40.190536Z"}}}